Location: Broletto
(44.6000°N, 10.5833°E)
Time: 07:21:44
(UTC+00:00)

Cosmos 909 Rocket - Pass Details

Date: 18 April 2021
Orbit: 989 x 2090 km, 65.9° (Epoch: 06 May)

Event Time Altitude Azimuth Distance (km) Brightness Sun altitude
Rises 19:04:09 0° 192° (SSW) 3,850 7.0 -10.4°
Reaches altitude 10° 19:06:55 10° 187° (S) 2,823 6.2 -10.8°
Maximum altitude 19:13:00 47° 115° (ESE) 1,286 4.2 -11.7°
Drops below altitude 10° 19:19:02 10° 43° (NE) 2,802 6.3 -12.7°
Sets 19:21:45 0° 38° (NE) 3,819 7.0 -13.1°
